Weather in Bobrovka

Russia / Samara Oblast     53°09′17″N   50°38′58″E
temp.,
°C
wind,
m/s
gust,
m/s
humid.,
%
clouds,
%
prec.,
mm/h
press.,
hPa
HPBL,
m
19 january, tue
tue1901:00−16nne3696100 2.1 1016265
04:00−15nne4696100 3.1 1015303
07:00−16n3596100 0.7 1014192
10:00−17nnw2395100 0.8 101545
13:00−15nw349497 0.1 1014229
16:00−17wnw339594 0.1 101446
19:00−21w229999 0.0 101520
22:00−24w229771 0.0 101520
20 january, wed
wed2001:00−24sw239850 0.0 101726
04:00−24wsw339673 0.0 101763
07:00−23wsw2396100 0.0 101778
10:00−24sw3596100 0.0 101893
13:00−22sw369425 0.0 1019231
16:00−22sw339614 0.0 101960
19:00−24sw339818 0.0 102026
22:00−25sw339934 0.0 102123
21 january, thu
thu2101:00−25sw239976 0.0 102220
04:00−24sw239977 0.0 102223
07:00−24sw339962 0.0 102236
10:00−22sw359974 0.0 1023104
13:00−18sw469697 0.0 1022232
16:00−16sw489599 0.1 1021255
19:00−16wsw4895100 0.0 1021250
22:00−14wsw4995100 0.1 1020270
22 january, fri
fri2201:00−14sw5993100 0.0 1019283
04:00−13sw5995100 0.8 1018329
07:00−13sw5994100 1.0 1017501
10:00−15sw3696100 1.2 1018178
13:00−13wsw239599 0.0 1018176
16:00−13sw229598 0.0 101921
19:00−15sw229498 0.0 102020
22:00−14sse229389 0.0 102120
23 january, sat
sat2301:00−12se349694 0.1 1021100
04:00−10se369697 0.5 1021173
07:00−8se4796100 1.0 1021217
10:00−4sse4796100 1.5 1021212
13:000sw5999100 0.1 1021370
16:00+1sw612100100 0.3 1020473
19:00+1sw51199100 0.0 1020486
22:00+1sw5999100 0.1 1020358